[[{"header":{"parameterUnit":"m.s-1","parameterCategory":1,"la1":30.2991,"la2":30.254,"lo1":-89.0895,"lo2":-89.0444,"dy":0.0017,"dx":0.0017,"nx":28,"ny":28,"refTime":"2024-10-12T03:00:00:Z","depth":0,"parameterNumber":2,"parameterNumberName":"U-component_of_WINDS"},"data":[0,0,0,0,0,0,0,0,0,0,0,0,0,0,0,0,0,0,0,0,0,0,0,0,0,0,0,0,0,0,0,0,0,0,0,0,0,0,0,0,0,0,0,0,0,0,0,0,0,0,0,0,0,0,0,0,0,0,-1.3016,-1.3017,0,-1.3034,-1.3034,-1.3034,-1.2982,-1.2981,-1.2979,-1.2978,-1.2996,-1.2998,-1.3,0,0,0,0,0,0,0,0,0,0,0,0,0,-1.294,-1.2941,-1.3016,-1.3017,-1.3017,-1.3034,-1.3034,-1.3034,-1.2983,-1.2981,-1.2979,-1.2977,-1.2996,-1.2998,-1.3,0,0,0,0,0,0,0,0,0,0,0,0,0,-1.2967,-1.2942,-1.3016,-1.2993,-1.2991,-1.3033,-1.3034,-1.3034,-1.2983,-1.2981,-1.2978,-1.2976,-1.2995,-1.2998,-1.3001,-1.3066,0,0,-1.301,-1.3011,0,0,0,0,0,0,0,0,-1.2965,-1.2969,-1.2996,-1.2995,-1.2993,-1.3003,-1.3013,-1.3045,-1.2984,-1.2986,-1.2978,-1.2975,-1.3001,-1.3003,-1.3011,-1.3067,-1.3068,-1.301,-1.3012,-1.3013,-1.3014,0,0,0,0,0,0,0,-1.2963,-1.2968,-1.3023,-1.2997,-1.2995,-1.2982,-1.2983,-1.3019,-1.3007,-1.2986,-1.2982,-1.2985,-1.2999,-1.3009,-1.3011,-1.3068,-1.301,-1.3012,-1.3014,-1.3015,-1.3178,-1.3181,0,0,0,0,0,0,-1.2964,-1.2967,-1.3023,-1.3024,-1.2973,-1.2985,-1.2987,-1.3002,-1.3006,-1.3004,-1.2987,-1.2982,-1.3005,-1.3008,-1.3012,-1.3089,-1.3013,-1.3016,-1.3017,-1.3176,-1.3179,-1.3182,0,0,0,0,0,0,-1.2963,-1.297,-1.3022,-1.2994,-1.3,-1.2989,-1.3007,-1.3004,-1.3013,-1.3007,-1.3004,-1.2999,-1.3003,-1.3008,-1.3053,-1.3089,-1.3017,-1.302,-1.3173,-1.3177,-1.318,-1.3243,0,0,0,0,0,0,-1.2961,-1.297,-1.2994,-1.2995,-1.3002,-1.3063,-1.3009,-1.3006,-1.3019,-1.3013,-1.3017,-1.3016,-1.3002,-1.3049,-1.3056,-1.3091,-1.3022,-1.3169,-1.3174,-1.3179,-1.3238,-1.3249,-1.3258,0,0,0,0,0,-1.2958,-1.3012,-1.2996,-1.3003,-1.3032,-1.3065,-1.3069,-1.3051,-1.3022,-1.3046,-1.3042,-1.3016,-1.3084,-1.3054,-1.3061,-1.3098,-1.3167,-1.3173,-1.3179,-1.3233,-1.3246,-1.3258,0,0,0,0,0,0,-1.3015,-1.3011,-1.2994,-1.3049,-1.3058,-1.3056,-1.3087,-1.3065,-1.3083,-1.3077,-1.3054,-1.3056,-1.3105,-1.3106,-1.3073,-1.3162,-1.312,-1.3128,-1.3159,-1.3172,-1.3182,-1.318,-1.3024,0,0,0,0,0,-1.3034,-1.3061,-1.3056,-1.3105,-1.311,-1.3098,-1.3111,-1.3097,-1.3105,-1.3109,-1.3108,-1.3117,-1.314,-1.3156,-1.3177,-1.3238,-1.3238,-1.3267,-1.3277,-1.3285,-1.3292,-1.3324,-1.3337,-1.3201,-1.32,-1.32,0,0,-1.3073,-1.3074,-1.3093,-1.3116,-1.3121,-1.3149,-1.3101,-1.3133,-1.3154,-1.3114,-1.3156,-1.3156,-1.3165,-1.3218,-1.3241,-1.322,-1.333,-1.3292,-1.3299,-1.3301,-1.3331,-1.3344,-1.3355,-1.3204,-1.3204,-1.3203,0,0,-1.3159,-1.3163,-1.3204,-1.321,-1.3218,-1.321,-1.322,-1.3222,-1.322,-1.3262,-1.3232,-1.3257,-1.3298,-1.3305,-1.3314,-1.3403,-1.3379,-1.3411,-1.3463,-1.3494,-1.3505,-1.3514,-1.3546,-1.3558,-1.3417,-1.3417,-1.3418,0,-1.3207,-1.3248,-1.3228,-1.3262,-1.3273,-1.3238,-1.3279,-1.3286,-1.3301,-1.331,-1.3286,-1.3336,-1.334,-1.3394,-1.3416,-1.3424,-1.3435,-1.341,-1.3505,-1.3514,-1.3523,-1.3553,-1.3565,-1.3421,-1.3421,-1.342,-1.342,0,-1.3306,-1.3335,-1.3367,-1.3382,-1.3397,-1.3435,-1.3421,-1.3438,-1.3423,-1.3417,-1.346,-1.3463,-1.3484,-1.3496,-1.3481,-1.3548,-1.3535,-1.3509,-1.3467,-1.354,-1.3567,-1.3579,-1.3427,-1.3425,-1.3424,-1.3423,0,0,-1.3428,-1.3432,-1.3444,-1.345,-1.3457,-1.3479,-1.3515,-1.3535,-1.355,-1.3562,-1.3592,-1.3627,-1.3602,-1.3613,-1.3599,-1.3626,-1.3696,-1.3596,-1.3596,-1.3615,-1.377,-1.379,-1.3804,-1.3681,-1.3683,-1.3685,-1.377,0,-1.3512,-1.3574,-1.3557,-1.3618,-1.3645,-1.3612,-1.3643,-1.3651,-1.3646,-1.3668,-1.3663,-1.3689,-1.3655,-1.3661,-1.3686,-1.3682,-1.3727,-1.3676,-1.3708,-1.371,-1.3707,-1.3818,-1.3839,-1.3919,-1.378,-1.3782,-1.3783,0,-1.3619,-1.3634,-1.3699,-1.3701,-1.3711,-1.374,-1.3757,-1.3778,-1.3786,-1.3781,-1.3793,-1.3773,-1.3809,-1.3767,-1.3815,-1.3781,-1.3793,-1.3793,-1.3796,-1.3798,-1.3751,-1.3823,-1.3944,-1.3956,-1.38,-1.3799,-1.3798,0,-1.3701,-1.3738,-1.3781,-1.3788,-1.3791,-1.3812,-1.3815,-1.382,-1.3834,-1.3849,-1.3857,-1.3877,-1.3887,-1.3903,-1.3889,-1.3859,-1.394,-1.3896,-1.3936,-1.3937,-1.3955,-1.3954,-1.4079,-1.3963,-1.3963,-1.3963,-1.3962,0,-1.3797,-1.3837,-1.3818,-1.3845,-1.3889,-1.3869,-1.3914,-1.3913,-1.3918,-1.3944,-1.3917,-1.3941,-1.3921,-1.3945,-1.3934,-1.3976,-1.3981,-1.3978,-1.3974,-1.398,-1.3981,-1.3988,-1.3982,-1.3966,-1.3965,-1.3965,-1.3964,0,-1.3896,-1.3884,-1.3929,-1.3929,-1.393,-1.3963,-1.3963,-1.3987,-1.3981,-1.4014,-1.4021,-1.4011,-1.4037,-1.4024,-1.4051,-1.4044,-1.4098,-1.4088,-1.4096,-1.4093,-1.4133,-1.413,-1.4268,-1.4285,-1.4158,-1.4159,-1.416,0,-1.3957,-1.3988,-1.3991,-1.4006,-1.4011,-1.4036,-1.4049,-1.4031,-1.4046,-1.4057,-1.4081,-1.4104,-1.4122,-1.4165,-1.416,-1.4181,-1.417,-1.4217,-1.4173,-1.4178,-1.4171,-1.4169,-1.4172,-1.4226,-1.4228,-1.4229,-1.423,0,-1.4068,-1.4061,-1.4081,-1.41,-1.4117,-1.4131,-1.4142,-1.4156,-1.4138,-1.4157,-1.4183,-1.4197,-1.4224,-1.4248,-1.4266,-1.4268,-1.4247,-1.4244,-1.4254,-1.426,-1.4263,-1.4262,-1.4119,-1.4241,-1.4239,-1.4239,-1.4238,-1.4238,-1.415,-1.4175,-1.4181,-1.4205,-1.4212,-1.4223,-1.4246,-1.4243,-1.4264,-1.4285,-1.4273,-1.4304,-1.4311,-1.4333,-1.4339,-1.4362,-1.4344,-1.4359,-1.4362,-1.4366,-1.4372,-1.426,-1.4366,-1.4365,-1.4365,-1.4365,-1.4364,0,-1.4258,-1.4261,-1.4283,-1.43,-1.4319,-1.4296,-1.4308,-1.4325,-1.4352,-1.4361,-1.4379,-1.4409,-1.4432,-1.4429,-1.445,-1.4469,-1.446,-1.4475,-1.4474,-1.4475,-1.4387,-1.4376,-1.4483,-1.4483,-1.4483,-1.4483,-1.4483,-1.4483,-1.4317,-1.4359,-1.4353,-1.4398,-1.44,-1.443,-1.4438,-1.4449,-1.4455,-1.449,-1.4509,-1.4507,-1.4511,-1.4532,-1.4552,-1.4551,-1.456,-1.4579,-1.4574,-1.4493,-1.4481,-1.447,-1.4459,-1.4581,-1.4582,-1.4659,-1.466,-1.4661]},{"header":{"parameterUnit":"m.s-1","parameterCategory":1,"la1":30.2991,"la2":30.254,"lo1":-89.0895,"lo2":-89.0444,"dy":0.0017,"dx":0.0017,"nx":28,"ny":28,"refTime":"2024-10-12T03:00:00:Z","depth":0,"parameterNumber":3,"parameterNumberName":"V-component_of_WINDS"},"data":[0,0,0,0,0,0,0,0,0,0,0,0,0,0,0,0,0,0,0,0,0,0,0,0,0,0,0,0,0,0,0,0,0,0,0,0,0,0,0,0,0,0,0,0,0,0,0,0,0,0,0,0,0,0,0,0,0,0,-1.3167,-1.3167,0,-1.3208,-1.3208,-1.3209,-1.3186,-1.3185,-1.3184,-1.3182,-1.3223,-1.3225,-1.3228,0,0,0,0,0,0,0,0,0,0,0,0,0,-1.3068,-1.307,-1.3167,-1.3167,-1.3168,-1.3208,-1.3208,-1.3209,-1.3186,-1.3185,-1.3183,-1.3182,-1.3223,-1.3225,-1.3228,0,0,0,0,0,0,0,0,0,0,0,0,0,-1.311,-1.307,-1.3167,-1.3161,-1.3161,-1.3208,-1.3208,-1.3209,-1.3186,-1.3185,-1.3183,-1.3181,-1.3222,-1.3225,-1.3228,-1.3282,0,0,-1.3238,-1.3239,0,0,0,0,0,0,0,0,-1.3108,-1.3114,-1.3162,-1.3162,-1.3162,-1.319,-1.3188,-1.3233,-1.3187,-1.3177,-1.3182,-1.3181,-1.3214,-1.3217,-1.3229,-1.3284,-1.3285,-1.3238,-1.324,-1.3241,-1.3242,0,0,0,0,0,0,0,-1.3105,-1.3112,-1.3183,-1.3162,-1.3162,-1.3156,-1.3161,-1.3197,-1.3204,-1.3177,-1.3176,-1.3181,-1.3213,-1.3226,-1.3229,-1.3286,-1.3238,-1.3241,-1.3243,-1.3244,-1.3388,-1.3389,0,0,0,0,0,0,-1.3102,-1.311,-1.3182,-1.3184,-1.313,-1.316,-1.3164,-1.3183,-1.3204,-1.3205,-1.3183,-1.318,-1.3221,-1.3226,-1.3231,-1.3296,-1.3241,-1.3244,-1.3246,-1.3386,-1.3388,-1.339,0,0,0,0,0,0,-1.31,-1.3109,-1.318,-1.3147,-1.3155,-1.3163,-1.3184,-1.3184,-1.3197,-1.3208,-1.3209,-1.3194,-1.322,-1.3226,-1.3269,-1.3297,-1.3246,-1.3249,-1.3383,-1.3386,-1.3389,-1.3426,0,0,0,0,0,0,-1.3098,-1.3108,-1.3129,-1.3147,-1.3157,-1.3219,-1.3186,-1.3186,-1.3202,-1.3199,-1.3219,-1.322,-1.3219,-1.3265,-1.3273,-1.33,-1.3251,-1.3381,-1.3385,-1.3388,-1.3422,-1.3429,-1.3435,0,0,0,0,0,-1.3094,-1.3138,-1.313,-1.3139,-1.3183,-1.322,-1.3226,-1.3224,-1.3205,-1.3226,-1.3233,-1.3219,-1.3292,-1.3269,-1.3278,-1.3307,-1.3379,-1.3384,-1.3388,-1.3419,-1.3428,-1.3435,0,0,0,0,0,0,-1.3122,-1.314,-1.3132,-1.3183,-1.32,-1.3216,-1.3242,-1.3233,-1.3256,-1.3253,-1.3249,-1.3253,-1.3299,-1.3307,-1.3281,-1.336,-1.3333,-1.3339,-1.3353,-1.3362,-1.3369,-1.3366,-1.3254,0,0,0,0,0,-1.3134,-1.3163,-1.3177,-1.322,-1.3229,-1.3234,-1.325,-1.3248,-1.3265,-1.3273,-1.3283,-1.33,-1.3327,-1.3345,-1.337,-1.3423,-1.3427,-1.3447,-1.3454,-1.3459,-1.3465,-1.3494,-1.3503,-1.3404,-1.3404,-1.3404,0,0,-1.316,-1.3173,-1.3191,-1.3226,-1.3239,-1.3269,-1.3241,-1.3273,-1.3295,-1.3277,-1.3319,-1.3327,-1.3346,-1.3395,-1.3416,-1.3403,-1.3493,-1.3464,-1.3469,-1.3472,-1.3499,-1.3508,-1.3517,-1.3407,-1.3406,-1.3406,0,0,-1.3221,-1.3234,-1.3271,-1.3285,-1.3306,-1.3309,-1.3318,-1.3336,-1.3341,-1.3382,-1.337,-1.3395,-1.3442,-1.3456,-1.3469,-1.3536,-1.3525,-1.3545,-1.358,-1.3609,-1.3617,-1.3623,-1.3648,-1.3657,-1.355,-1.355,-1.355,0,-1.325,-1.3295,-1.3292,-1.3326,-1.3342,-1.3327,-1.3365,-1.3378,-1.3406,-1.3417,-1.3402,-1.346,-1.3472,-1.3523,-1.354,-1.3551,-1.3561,-1.3543,-1.3616,-1.3623,-1.3629,-1.3652,-1.3662,-1.3552,-1.3552,-1.3552,-1.3552,0,-1.3329,-1.3361,-1.3388,-1.3416,-1.3435,-1.3471,-1.3473,-1.3493,-1.3488,-1.3493,-1.3536,-1.3549,-1.3577,-1.3589,-1.3585,-1.3641,-1.3632,-1.3616,-1.3588,-1.3641,-1.3663,-1.3672,-1.3556,-1.3555,-1.3554,-1.3554,0,0,-1.341,-1.3436,-1.3446,-1.3459,-1.348,-1.3504,-1.3539,-1.3567,-1.3584,-1.3603,-1.3633,-1.3672,-1.3658,-1.3673,-1.367,-1.3695,-1.3748,-1.3676,-1.3677,-1.369,-1.3811,-1.3823,-1.3834,-1.3741,-1.3742,-1.3744,-1.381,0,-1.3474,-1.3536,-1.3534,-1.3592,-1.3621,-1.3607,-1.3637,-1.3654,-1.3659,-1.3684,-1.369,-1.3718,-1.3697,-1.3706,-1.373,-1.3737,-1.3773,-1.3732,-1.3768,-1.377,-1.3765,-1.3845,-1.3858,-1.392,-1.3818,-1.382,-1.3821,0,-1.3556,-1.3579,-1.364,-1.3657,-1.3669,-1.3697,-1.3723,-1.3747,-1.3765,-1.3767,-1.3784,-1.3777,-1.3813,-1.3784,-1.3832,-1.3805,-1.3819,-1.3825,-1.3827,-1.3831,-1.3799,-1.3852,-1.394,-1.3949,-1.3834,-1.3833,-1.3832,0,-1.361,-1.3656,-1.3698,-1.3709,-1.3731,-1.375,-1.376,-1.3777,-1.3794,-1.3816,-1.3827,-1.3852,-1.3867,-1.3887,-1.3887,-1.3865,-1.3936,-1.3907,-1.3939,-1.3939,-1.3956,-1.3955,-1.4048,-1.3964,-1.3964,-1.3963,-1.3963,0,-1.3682,-1.372,-1.3723,-1.3749,-1.3791,-1.3788,-1.383,-1.3838,-1.3853,-1.388,-1.3869,-1.3895,-1.3893,-1.3919,-1.3919,-1.396,-1.3966,-1.3969,-1.3969,-1.397,-1.397,-1.3981,-1.3977,-1.3966,-1.3965,-1.3965,-1.3964,0,-1.375,-1.3753,-1.3799,-1.3815,-1.382,-1.385,-1.3864,-1.3889,-1.3893,-1.3928,-1.3936,-1.3943,-1.3973,-1.3975,-1.4009,-1.4009,-1.4059,-1.4053,-1.4053,-1.4052,-1.4085,-1.4082,-1.4188,-1.4202,-1.4108,-1.4109,-1.411,0,-1.3795,-1.3824,-1.3844,-1.3862,-1.3873,-1.3902,-1.3919,-1.3917,-1.3936,-1.3959,-1.3981,-1.401,-1.4033,-1.4082,-1.409,-1.4116,-1.4112,-1.4147,-1.4116,-1.4117,-1.4113,-1.4112,-1.4115,-1.4153,-1.4154,-1.4155,-1.4156,0,-1.3877,-1.3877,-1.3903,-1.393,-1.3951,-1.3971,-1.3991,-1.4006,-1.4006,-1.4028,-1.4059,-1.4077,-1.4112,-1.4141,-1.4167,-1.4177,-1.4167,-1.4166,-1.4175,-1.4177,-1.4176,-1.4178,-1.4071,-1.4163,-1.4163,-1.4162,-1.4162,-1.4161,-1.3936,-1.3961,-1.3979,-1.4008,-1.4022,-1.4041,-1.4065,-1.4072,-1.4098,-1.4128,-1.4125,-1.4159,-1.4177,-1.421,-1.4222,-1.4249,-1.4237,-1.4249,-1.4253,-1.4256,-1.426,-1.4171,-1.4253,-1.4253,-1.4253,-1.4253,-1.4252,0,-1.4017,-1.4028,-1.4055,-1.4083,-1.4105,-1.4094,-1.4115,-1.4135,-1.4165,-1.4182,-1.4206,-1.4241,-1.427,-1.4279,-1.4307,-1.4326,-1.4323,-1.4334,-1.4333,-1.4335,-1.4269,-1.4259,-1.4336,-1.4336,-1.4336,-1.4336,-1.4336,-1.4336,-1.4063,-1.4105,-1.4107,-1.4157,-1.4167,-1.4201,-1.4214,-1.4231,-1.4245,-1.4285,-1.4309,-1.4315,-1.433,-1.4358,-1.4383,-1.4385,-1.4396,-1.441,-1.441,-1.4348,-1.434,-1.4332,-1.4322,-1.4412,-1.4412,-1.4474,-1.4475,-1.4475]}]]